{"data":{"norad_id":55932,"intl_designator":"2023-037U","name":"STARLINK-5848","alt_names":[],"object_type":"PAYLOAD","status":"ACTIVE","operator":null,"country":"US","launch_date":"2023-03-17","launch_site_code":"AFWTR","launch_vehicle":null,"mission":null,"orbit_class":"UNKNOWN","rcs_meters":null,"size_class":null,"mass_kg":null,"dimensions":null,"purposes":["comms"],"wikipedia_slug":null,"has_3d_model":false,"image_url":null,"decayed_at":null,"tle_current":{"epoch":"2026-05-25T02:26:20.476896Z","epoch_age_seconds":63583,"freshness":"FRESH","line1":"1 55932U 23037U   26145.10162589 -.00004215  00000+0 -34575-3 0  9999","line2":"2 55932  70.0011  71.6071 0002013 247.5249 112.5697 14.98326598175926","mean_motion":14.98326598,"eccentricity":0.0002013,"inclination_deg":70.0011,"raan_deg":71.6071,"arg_perigee_deg":247.5249,"mean_anomaly_deg":112.5697,"bstar":-0.00034575,"rev_number":17592,"period_min":96.107217339807,"perigee_km":570.66733542198,"apogee_km":573.4654873154,"semimajor_km":6950.2034113687,"source":"CELESTRAK","updated_at":"2026-05-25T13:38:17.913854Z"}}}